Mukilteo, WA

8:24 AM PST on February 27, 2017 (GMT -0800)
Snohomish County

Weather History for KPAE - February, 2013

Change the Weather History Date:

Sunday, February 3, 2013

  Actual Average Record
Temperature  
Mean Temperature 42 °F -  
Max Temperature 46 °F 46 °F 63 °F (1962)
Min Temperature 37 °F 33 °F 6 °F (1950)
Degree Days  
Heating Degree Days 24    
Moisture  
Dew Point 40 °F    
Average Humidity 91    
Maximum Humidity 100    
Minimum Humidity 76    
Precipitation  
Precipitation 0.04 in - - ()
Sea Level Pressure  
Sea Level Pressure 30.25 in    
Wind  
Wind Speed 6 mph (SSE)    
Max Wind Speed 13 mph    
Max Gust Speed -    
Visibility 5 miles    
Events Fog , Rain    
Averages and records for this station are not official NWS values.
T = Trace of Precipitation, MM = Missing Value Source: NWS Daily Summary

Daily Weather History Graph

Daily Weather History Graph

Search for Another Location

Airport or City:

Trip Planner

Search our weather history database for the weather conditions in past years. The results will help you decide how hot, cold, wet, or windy it might be!

Date:

Astronomy

Feb. 03, 2013 Rise Set
Actual Time 7:33 AM PST 5:13 PM PST
Civil Twilight 7:00 AM PST 5:46 PM PST
Nautical Twilight 6:23 AM PST 6:23 PM PST
Astronomical Twilight 5:47 AM PST 6:59 PM PST
Moon 1:08 AM PST (2/3) 10:51 AM PST (2/3)
Length of Visible Light 10h 45m
Length of Day
9h 40m
Waning Gibbous, 47% of the Moon is Illuminated
Feb 3
Waning Gibbous
Feb 9
New
Feb 17
First Quarter
Feb 25
Full
Mar 4
Last Quarter

Hourly Weather History & Observations

Time (PST) Temp. Windchill Dew Point Humidity Pressure Visibility Wind Dir Wind Speed Gust Speed Precip Events Conditions
12:13 AM 37.4 °F 34.9 °F 37.4 °F 100% 30.27 in 0.2 mi SSW 3.5 mph - N/A Fog Fog
12:48 AM 39.2 °F - 37.4 °F 93% 30.28 in 0.2 mi Calm Calm - N/A Fog Fog
12:53 AM 39.0 °F 35.7 °F 37.9 °F 96% 30.29 in 0.2 mi SSE 4.6 mph - N/A Fog Fog
1:11 AM 39.2 °F 37.0 °F 37.4 °F 93% 30.28 in 0.2 mi South 3.5 mph - N/A Fog Fog
1:19 AM 39.2 °F 35.0 °F 37.4 °F 93% 30.27 in 0.5 mi South 5.8 mph - N/A Fog Fog
1:28 AM 39.2 °F 34.2 °F 37.4 °F 93% 30.27 in 0.2 mi South 6.9 mph - N/A Fog Fog
1:53 AM 39.0 °F 34.8 °F 37.0 °F 93% 30.28 in 0.2 mi South 5.8 mph - N/A Fog Fog
2:18 AM 37.4 °F 32.8 °F 37.4 °F 100% 30.27 in 0.2 mi SSE 5.8 mph - N/A Fog Fog
2:43 AM 39.2 °F 33.0 °F 37.4 °F 93% 30.26 in 0.5 mi SSE 9.2 mph - N/A Fog Fog
2:53 AM 39.0 °F 33.4 °F 37.0 °F 93% 30.27 in 0.5 mi SSE 8.1 mph - N/A Fog Fog
3:06 AM 39.2 °F 34.2 °F 37.4 °F 93% 30.25 in 0.5 mi SSE 6.9 mph - N/A Fog Fog
3:14 AM 39.2 °F 35.0 °F 37.4 °F 93% 30.25 in 0.2 mi South 5.8 mph - N/A Fog Fog
3:45 AM 39.2 °F 37.0 °F 39.2 °F 100% 30.26 in 0.5 mi South 3.5 mph - N/A Fog Fog
3:53 AM 39.0 °F 36.8 °F 37.9 °F 96% 30.27 in 0.5 mi SSE 3.5 mph - N/A Fog Fog
4:32 AM 39.2 °F 34.2 °F 39.2 °F 100% 30.26 in 0.5 mi SSE 6.9 mph - N/A Fog Fog
4:43 AM 39.2 °F 35.9 °F 39.2 °F 100% 30.27 in 0.5 mi ESE 4.6 mph - N/A Fog Fog
4:53 AM 37.9 °F - 37.0 °F 97% 30.28 in 0.2 mi Calm Calm - N/A Fog Fog
5:06 AM 37.4 °F 34.9 °F 37.4 °F 100% 30.26 in 0.5 mi SE 3.5 mph - N/A Fog Fog
5:24 AM 37.4 °F 32.8 °F 37.4 °F 100% 30.26 in 0.5 mi Variable 5.8 mph - N/A Fog Fog
5:39 AM 39.2 °F 33.0 °F 37.4 °F 93% 30.26 in 1.0 mi SE 9.2 mph - N/A   Mist
5:53 AM 39.0 °F 33.4 °F 37.9 °F 96% 30.27 in 1.0 mi SE 8.1 mph - N/A   Mist
6:00 AM 39.2 °F 32.5 °F 37.4 °F 93% 30.26 in 0.8 mi SSE 10.4 mph - N/A   Mist
6:08 AM 39.2 °F 33.6 °F 39.2 °F 100% 30.27 in 1.5 mi SSE 8.1 mph - N/A   Overcast
6:17 AM 39.2 °F 34.2 °F 39.2 °F 100% 30.28 in 2.5 mi SSE 6.9 mph - N/A   Overcast
6:24 AM 39.2 °F 33.6 °F 39.2 °F 100% 30.27 in 3.0 mi SSE 8.1 mph - N/A   Overcast
6:53 AM 41.0 °F 35.8 °F 39.0 °F 93% 30.28 in 3.0 mi SSE 8.1 mph - N/A   Overcast
7:53 AM 41.0 °F 37.1 °F 39.0 °F 93% 30.29 in 3.0 mi SSE 5.8 mph - N/A   Overcast
8:53 AM 42.1 °F 36.6 °F 39.9 °F 92% 30.30 in 7.0 mi SSE 9.2 mph - N/A   Overcast
9:53 AM 43.0 °F 38.2 °F 39.9 °F 89% 30.29 in 6.0 mi SSE 8.1 mph - N/A   Overcast
10:53 AM 44.1 °F 39.5 °F 41.0 °F 89% 30.31 in 7.0 mi South 8.1 mph - N/A   Overcast
11:53 AM 45.0 °F 41.2 °F 41.0 °F 86% 30.29 in 9.0 mi SSE 6.9 mph - N/A   Overcast
11:56 AM 44.6 °F 41.4 °F 41.0 °F 87% 30.28 in 9.0 mi South 5.8 mph - N/A   Overcast
12:53 PM 46.0 °F 42.5 °F 41.0 °F 83% 30.28 in 10.0 mi SSE 6.9 mph - N/A   Overcast
1:53 PM 46.0 °F 41.9 °F 41.0 °F 83% 30.25 in 10.0 mi SSE 8.1 mph - N/A   Overcast
2:00 PM 46.4 °F 42.4 °F 41.0 °F 81% 30.24 in 10.0 mi SSE 8.1 mph - N/A   Overcast
2:53 PM 46.9 °F - 39.9 °F 77% 30.24 in 10.0 mi SSE 8.1 mph - N/A   Overcast
3:00 PM 46.4 °F 41.9 °F 39.2 °F 76% 30.24 in 10.0 mi South 9.2 mph - N/A   Overcast
3:53 PM 46.9 °F - 39.9 °F 77% 30.25 in 10.0 mi South 10.4 mph - N/A   Overcast
4:53 PM 45.0 °F 40.6 °F 41.0 °F 86% 30.25 in 10.0 mi SSE 8.1 mph - N/A   Overcast
5:00 PM 44.6 °F 40.7 °F 41.0 °F 87% 30.23 in 10.0 mi South 6.9 mph - N/A   Overcast
5:48 PM 44.6 °F 39.7 °F 41.0 °F 87% 30.23 in 9.0 mi SSE 9.2 mph - 0.00 in Rain Light Rain
5:53 PM 45.0 °F 40.1 °F 41.0 °F 86% 30.24 in 9.0 mi South 9.2 mph - 0.00 in Rain Light Rain
6:53 PM 45.0 °F 40.6 °F 41.0 °F 86% 30.23 in 6.0 mi SSE 8.1 mph - 0.01 in Rain Light Rain
7:28 PM 44.6 °F 39.7 °F 42.8 °F 93% 30.21 in 7.0 mi South 9.2 mph - 0.01 in Rain Light Rain
7:42 PM 44.6 °F 39.7 °F 42.8 °F 93% 30.21 in 5.0 mi South 9.2 mph - 0.02 in Rain Light Rain
7:53 PM 45.0 °F 40.1 °F 42.1 °F 90% 30.22 in 5.0 mi South 9.2 mph - 0.02 in Rain Light Rain
8:41 PM 44.6 °F 39.2 °F 42.8 °F 93% 30.20 in 8.0 mi South 10.4 mph - 0.00 in   Overcast
8:53 PM 45.0 °F 39.7 °F 42.1 °F 90% 30.22 in 9.0 mi South 10.4 mph - 0.00 in   Overcast
8:58 PM 44.6 °F 39.7 °F 42.8 °F 93% 30.21 in 9.0 mi SSW 9.2 mph - N/A   Overcast
9:14 PM 44.6 °F 38.4 °F 41.0 °F 87% 30.20 in 10.0 mi SSW 12.7 mph - N/A   Overcast
9:27 PM 44.6 °F 38.4 °F 41.0 °F 87% 30.21 in 10.0 mi South 12.7 mph - 0.01 in   Overcast
9:53 PM 44.1 °F 39.0 °F 41.0 °F 89% 30.22 in 10.0 mi SSW 9.2 mph - 0.01 in   Overcast
10:38 PM 44.6 °F 40.7 °F 41.0 °F 87% 30.20 in 10.0 mi SSW 6.9 mph - N/A   Overcast
10:53 PM 44.1 °F 39.5 °F 41.0 °F 89% 30.22 in 10.0 mi SSW 8.1 mph - N/A   Overcast
11:07 PM 44.6 °F 40.7 °F 41.0 °F 87% 30.21 in 10.0 mi SSW 6.9 mph - N/A   Overcast
11:53 PM 44.1 °F 40.8 °F 41.0 °F 89% 30.21 in 10.0 mi SSW 5.8 mph - N/A   Overcast